Location: Boiro
(42.6475°N, 8.8834°W)
Time: 19:06:58
(UTC+01:00)

A-11 Canister half - Pass Details

Date: 03 December 2021
Orbit: 1516 x 1684 km, 47.2° (Epoch: 26 January)

Event Time Altitude Azimuth Distance (km) Brightness Sun altitude
Rises 08:32:03 0° 228° (SW) 4,739 11.4 -3.4°
Reaches altitude 10° 08:35:06 10° 225° (SW) 3,779 10.9 -2.9°
Maximum altitude 08:44:37 67° 146° (SE) 1,736 9.7 -1.4°
Drops below altitude 10° 08:54:30 10° 67° (ENE) 3,917 11.7 0.2°
Sets 08:57:43 0° 65° (ENE) 4,921 12.2 0.7°
